Miscellaneous Local Product
Issued by NWS Hastings, NE

Home | Current Version | Previous Version | Graphics & Text | Print | Product List | Glossary On
Versions: 1 2 3 4 5 6 7 8 9 10 11 12 13 14 15 16 17 18 19 20 21 22 23 24 25 26 27 28 29 30 31 32 33 34 35 36 37 38 39 40 41 42 43 44 45 46 47 48 49 50
000
AXUS43 KGID 280502
MISGRI

GID CWA HOURLY WEATHER ROUNDUP
NATIONAL WEATHER SERVICE HASTINGS NE
1200 AM CDT SAT MAY 28 2016

NOTE: "FAIR" INDICATES FEW OR NO CLOUDS BELOW 12,000 FEET WITH NO
SIGNIFICANT WEATHER AND/OR OBSTRUCTIONS TO VISIBILITY.

...SOUTH CENTRAL NEBRASKA...

CITY           SKY/WX    TMP DP  RH WIND       PRES   REMARKS
GRAND ISLAND   CLOUDY    59  54  83 NE12      29.73S
HASTINGS       CLOUDY    59  53  80 CALM      29.74R
KEARNEY        CLOUDY    59  54  82 E13       29.75S
ORD            LGT RAIN  58  56  93 NE10      29.76F
YORK           CLOUDY    59  55  88 NE10      29.70F
AURORA         CLOUDY    60  59  97 NE16      29.70F
LEXINGTON      TSTM      58  55  89 N7        29.78R
HOLDREGE       LGT RAIN  60  57  91 N6        29.74R
HEBRON         MOCLDY    58  57  98 NE6       29.75F

...NEBRASKA PANHANDLE...

CITY           SKY/WX    TMP DP  RH WIND       PRES   REMARKS
CHADRON        MOCLDY    48  43  82 S3        29.88S
ALLIANCE       CLEAR     44  43  96 CALM      29.89S
SCOTTSBLUFF    CLOUDY    48  43  82 N6        29.91R
SIDNEY         CLEAR     45  43  93 W8        29.91

...WESTERN AND NORTH CENTRAL NEBRASKA...

CITY           SKY/WX    TMP DP  RH WIND       PRES   REMARKS
VALENTINE      CLOUDY    57  50  77 N5        29.83S
AINSWORTH      MOCLDY    56  52  85 N6        29.82S
ONEILL         MOCLDY    64  59  84 N10       29.76F
BROKEN BOW     TSTM      57  54  89 E9        29.79R FOG
IMPERIAL       PTCLDY    52  48  86 NW10      29.83F
NORTH PLATTE   CLOUDY    52  51  97 NW6       29.80S
MCCOOK         MOCLDY    55  50  83 CALM      29.78R

...EASTERN NEBRASKA...

CITY           SKY/WX    TMP DP  RH WIND       PRES   REMARKS
NORFOLK        RAIN      58  56  93 S6        29.76F FOG
SO SIOUX CITY  TSTM      64  61  90 NW5       29.75R FOG
TEKAMAH        LGT RAIN  62  59  90 SW14      29.72F
COLUMBUS       MOCLDY    57  48  72 N13       29.71F
ALBION         RAIN      57  53  85 W7        29.75F
OMAHA EPPLEY   LGT RAIN  63  59  87 SW6       29.74F
OFFUTT AFB     LGT RAIN  62  61  96 W6        29.73F
MILLARD        CLOUDY    63  60  91 NW3       29.75F
LINCOLN        CLOUDY    62  58  86 N6        29.73F
NEBRASKA CITY  LGT RAIN  60  60 100 CALM      29.75F
BEATRICE       CLOUDY    59  56  92 N7        29.74S
FALLS CITY     LGT RAIN  62  59  90 CALM      29.76R

...NORTHERN KANSAS...

CITY           SKY/WX    TMP DP  RH WIND       PRES   REMARKS
GOODLAND       CLEAR     49  47  93 W9        29.85R
HILL CITY      CLOUDY    58  54  86 N13       29.75R
NORTON         PTCLDY    57  46  67 NW30G37   29.72F
PHILLIPSBURG   TSTM      57  57 100 S7        29.77R
SMITH CENTER   LGT RAIN  55  54  94 W12G22    29.74F
BELOIT         CLOUDY    59  55  88 CALM      29.76F
HAYS           CLOUDY    55  48  76 NE8       29.74S
RUSSELL        LGT RAIN  57  55  93 NE8       29.75R
CONCORDIA      LGT RAIN  61  55  81 NE3       29.77R
SALINA         CLOUDY    62  56  80 NW5       29.76R
TOPEKA         CLOUDY    61  58  90 E9        29.71F



USA.gov is the U.S. government's official web portal to all federal, state and local government web resources and services.